Location: Boone Canyon
(38.3180°N, 119.2504°W)
Time: 17:32:06
(UTC+00:00)

Cosmos 2278 - Pass Details

Date: 18 September 2020
Orbit: 840 x 852 km, 71.1° (Epoch: 19 October)

Event Time Altitude Azimuth Distance (km) Brightness Sun altitude
Exits shadow 12:10:42 30° 271° (W) 1,476 4.4 -18.4°
Maximum altitude 12:12:08 35° 300° (WNW) 1,359 4.4 -18.1°
Drops below altitude 10° 12:17:19 10° 5° (N) 2,485 6.4 -17.1°
Sets 12:20:00 0° 15° (NNE) 3,424 7.3 -16.6°
